Location: Azul
(36.7830°S, 59.8500°W)
Time: 20:29:00
(UTC-03:00)

RS-44 - Pass Details

Date: 21 September 2024
Orbit: 1174 x 1511 km, 82.5° (Epoch: 11 October)

Event Time Altitude Azimuth Distance (km) Brightness Sun altitude
Rises 05:06:47 0° 208° (SSW) 4,483 ? -21.2°
Reaches altitude 10° 05:11:12 10° 229° (SW) 3,562 ? -20.3°
Enters shadow 05:12:36 12° 238° (WSW) 3,380 ? -20.0°
